ジャクソン-ニェウイミン彗星

58P/Jackson-Neujmin (2004)

English version
Home page
Updated on April 9, 2020

---------------------------------------------------------------------

・ プロフィール

・ 軌道要素

Epoch 2003 Dec. 27.0 TT = JDT 2453000.5                                         
T 2004 Jan. 10.41419 TT                                 Williams                    
q   1.3886878            (2000.0)            P               Q                  
n   0.11913013     Peri.  200.44172     +0.99664764     -0.02698240             
a   4.0906122      Node   160.61514     +0.04095291     +0.98179776             
e   0.6605184      Incl.   13.45615     -0.07082618     +0.18800294             
P   8.27                                                                        
From 326 observations 1987 July 25-2020 Apr. 8, mean residual 0".8.             
     Nongravitational parameters A1 = -0.38, A2 = +0.2178.                      

・ 星図

・ 光度変化

        m1 = 7.5 + 5 logΔ + 30 log r(t - 80)

---------------------------------------------------------------------

軌道要素はM.P.E.C. 2020-G76に掲載されたものです。
星図は StellaNavigator Ver.2.0 for Windows (アストロアーツ 編著 / アスキー出版局刊) で作成したものです。
光度グラフはComet for Windowsで作成したものです。

---------------------------------------------------------------------

Copyright(C) Seiichi Yoshida (comet@aerith.net). All rights reserved.